• In Netherlands
  • List of Countries
  • For 7 days
  • Water Temperature
  • Satellite Maps
  • Weather Map
  • Weather Widgets
  • user-avatar
    Login

    Hourly Weather Andora

    Today, 27 July, Thursday

    Time Temperature Precipitation Wind Pressure Humidity
    00:00 +10°C° 0 mm 2 mps 625 mmHg 77%
    01:00 +10°C° 0 mm 2 mps 625 mmHg 75%
    02:00 +11°C° 0 mm 1 mps 625 mmHg 74%
    03:00 +11°C° 0 mm 1 mps 625 mmHg 72%
    04:00 +12°C° 0 mm 1 mps 626 mmHg 69%
    05:00 +12°C° 0 mm 1 mps 626 mmHg 66%
    06:00 +14°C° 0 mm 1 mps 627 mmHg 62%
    07:00 +16°C° 0 mm 1 mps 627 mmHg 55%
    08:00 +19°C° 0 mm 1 mps 628 mmHg 48%
    09:00 +22°C° 0 mm 1 mps 629 mmHg 40%
    10:00 +23°C° 0 mm 2 mps 629 mmHg 38%
    11:00 +24°C° 0 mm 2 mps 630 mmHg 36%
    12:00 +24°C° 0 mm 2 mps 630 mmHg 38%
    13:00 +25°C° 0 mm 2 mps 630 mmHg 38%
    14:00 +25°C° 0 mm 3 mps 630 mmHg 37%
    15:00 +25°C° 0 mm 3 mps 629 mmHg 37%
    16:00 +24°C° 0 mm 2 mps 629 mmHg 40%
    17:00 +23°C° 0 mm 2 mps 629 mmHg 44%
    18:00 +21°C° 0 mm 2 mps 628 mmHg 48%
    19:00 +19°C° 0 mm 2 mps 628 mmHg 58%
    20:00 +16°C° 0 mm 2 mps 627 mmHg 68%
    21:00 +14°C° 0 mm 1 mps 627 mmHg 78%
    22:00 +14°C° 0 mm 1 mps 627 mmHg 79%
    23:00 +13°C° 0 mm 1 mps 627 mmHg 81%

    Tomorrow, 28 July, Friday

    Time Temperature Precipitation Wind Pressure Humidity
    00:00 +13°C° 0 mm 1 mps 627 mmHg 83%
    01:00 +13°C° 0 mm 1 mps 626 mmHg 82%
    02:00 +12°C° 0 mm 1 mps 626 mmHg 81%
    03:00 +12°C° 0 mm 1 mps 626 mmHg 81%
    04:00 +13°C° 0 mm 1 mps 627 mmHg 77%
    05:00 +14°C° 0 mm 1 mps 627 mmHg 74%
    06:00 +14°C° 0 mm 1 mps 627 mmHg 71%
    07:00 +16°C° 0 mm 1 mps 628 mmHg 65%
    08:00 +19°C° 0 mm 2 mps 629 mmHg 59%
    09:00 +21°C° 0 mm 2 mps 630 mmHg 53%
    10:00 +22°C° 0 mm 3 mps 631 mmHg 51%
    11:00 +22°C° 0 mm 3 mps 631 mmHg 48%
    12:00 +24°C° 0 mm 3 mps 631 mmHg 46%
    13:00 +24°C° 0.1 mm 3 mps 631 mmHg 47%
    14:00 +24°C° 0.1 mm 3 mps 631 mmHg 47%
    15:00 +24°C° 0.1 mm 3 mps 630 mmHg 48%
    16:00 +24°C° 0.1 mm 3 mps 630 mmHg 52%
    17:00 +23°C° 0.1 mm 2 mps 630 mmHg 56%
    18:00 +21°C° 0.1 mm 2 mps 630 mmHg 60%
    19:00 +20°C° 0.1 mm 1 mps 629 mmHg 69%
    20:00 +18°C° 0.1 mm 1 mps 629 mmHg 77%
    21:00 +15°C° 0.1 mm 1 mps 628 mmHg 86%
    22:00 +14°C° 0 mm 1 mps 628 mmHg 86%
    23:00 +14°C° 0 mm 1 mps 628 mmHg 87%

    Day after tomorrow, 29 July, Saturday

    Time Temperature Precipitation Wind Pressure Humidity
    00:00 +14°C° 0 mm 1 mps 628 mmHg 87%
    01:00 +13°C° 0 mm 1 mps 628 mmHg 87%
    02:00 +13°C° 0 mm 1 mps 627 mmHg 86%
    03:00 +13°C° 0 mm 1 mps 627 mmHg 86%
    04:00 +14°C° 0 mm 1 mps 627 mmHg 81%
    05:00 +14°C° 0 mm 1 mps 628 mmHg 77%
    06:00 +15°C° 0 mm 1 mps 628 mmHg 73%
    07:00 +19°C° 0 mm 1 mps 629 mmHg 64%
    08:00 +20°C° 0 mm 2 mps 630 mmHg 55%
    09:00 +24°C° 0 mm 2 mps 631 mmHg 45%
    10:00 +25°C° 0 mm 3 mps 631 mmHg 41%
    11:00 +26°C° 0 mm 3 mps 631 mmHg 37%
    12:00 +27°C° 0 mm 4 mps 631 mmHg 32%
    13:00 +27°C° 0 mm 4 mps 631 mmHg 33%
    14:00 +27°C° 0 mm 4 mps 631 mmHg 33%
    15:00 +27°C° 0 mm 4 mps 631 mmHg 33%
    16:00 +26°C° 0 mm 4 mps 630 mmHg 38%
    17:00 +25°C° 0 mm 3 mps 630 mmHg 43%
    18:00 +24°C° 0 mm 3 mps 629 mmHg 48%
    19:00 +20°C° 0 mm 2 mps 629 mmHg 56%
    20:00 +18°C° 0 mm 2 mps 628 mmHg 63%
    21:00 +16°C° 0 mm 1 mps 627 mmHg 70%
    22:00 +15°C° 0 mm 1 mps 627 mmHg 69%
    23:00 +15°C° 0 mm 1 mps 627 mmHg 69%

    30 July, Sunday

    Time Temperature Precipitation Wind Pressure Humidity
    00:00 +15°C° 0 mm 1 mps 627 mmHg 68%
    01:00 +15°C° 0.1 mm 1 mps 627 mmHg 67%
    02:00 +15°C° 0.1 mm 1 mps 627 mmHg 66%
    03:00 +15°C° 0.1 mm 1 mps 627 mmHg 64%
    04:00 +15°C° 0 mm 1 mps 627 mmHg 65%
    05:00 +15°C° 0 mm 1 mps 627 mmHg 65%
    06:00 +16°C° 0 mm 1 mps 627 mmHg 65%
    07:00 +18°C° 0 mm 2 mps 628 mmHg 59%
    08:00 +20°C° 0 mm 2 mps 629 mmHg 52%
    09:00 +24°C° 0 mm 3 mps 630 mmHg 45%
    10:00 +24°C° 0 mm 3 mps 630 mmHg 43%
    11:00 +25°C° 0 mm 4 mps 630 mmHg 40%
    12:00 +26°C° 0 mm 5 mps 630 mmHg 38%
    13:00 +26°C° 0 mm 5 mps 630 mmHg 38%
    14:00 +27°C° 0 mm 5 mps 630 mmHg 38%
    15:00 +27°C° 0 mm 5 mps 630 mmHg 38%
    16:00 +25°C° 0.2 mm 4 mps 629 mmHg 44%
    17:00 +24°C° 0.2 mm 3 mps 629 mmHg 49%
    18:00 +22°C° 0.2 mm 3 mps 628 mmHg 55%
    19:00 +20°C° 0.1 mm 2 mps 628 mmHg 62%
    20:00 +18°C° 0.1 mm 2 mps 627 mmHg 69%
    21:00 +16°C° 0.1 mm 1 mps 627 mmHg 76%
    22:00 +15°C° 0 mm 1 mps 627 mmHg 75%
    23:00 +15°C° 0 mm 1 mps 626 mmHg 74%

    31 July, Monday

    Time Temperature Precipitation Wind Pressure Humidity
    00:00 +14°C° 0 mm 1 mps 626 mmHg 74%
    01:00 +14°C° 0 mm 1 mps 626 mmHg 70%
    02:00 +14°C° 0 mm 2 mps 626 mmHg 66%
    03:00 +14°C° 0 mm 2 mps 625 mmHg 62%
    04:00 +14°C° 0 mm 2 mps 625 mmHg 61%
    05:00 +15°C° 0 mm 2 mps 625 mmHg 61%
    06:00 +16°C° 0 mm 2 mps 626 mmHg 60%
    07:00 +18°C° 0 mm 2 mps 627 mmHg 53%
    08:00 +21°C° 0 mm 3 mps 628 mmHg 46%
    09:00 +23°C° 0 mm 4 mps 629 mmHg 39%
    10:00 +25°C° 0 mm 4 mps 629 mmHg 36%
    11:00 +26°C° 0 mm 5 mps 629 mmHg 34%
    12:00 +28°C° 0 mm 5 mps 629 mmHg 31%
    13:00 +27°C° 0 mm 5 mps 629 mmHg 32%
    14:00 +27°C° 0 mm 5 mps 629 mmHg 33%
    15:00 +27°C° 0 mm 5 mps 628 mmHg 33%
    16:00 +26°C° 0.2 mm 5 mps 628 mmHg 39%
    17:00 +23°C° 0.2 mm 4 mps 627 mmHg 44%
    18:00 +22°C° 0.2 mm 3 mps 627 mmHg 50%
    19:00 +20°C° 0.1 mm 2 mps 626 mmHg 56%
    20:00 +18°C° 0.1 mm 2 mps 626 mmHg 61%
    21:00 +16°C° 0.1 mm 1 mps 626 mmHg 67%
    22:00 +15°C° 0 mm 1 mps 626 mmHg 65%
    23:00 +15°C° 0 mm 1 mps 626 mmHg 63%

    1 August, Tuesday

    Time Temperature Precipitation Wind Pressure Humidity
    00:00 +14°C° 0 mm 1 mps 626 mmHg 60%
    01:00 +14°C° 0 mm 1 mps 626 mmHg 58%
    02:00 +14°C° 0 mm 1 mps 626 mmHg 57%
    03:00 +14°C° 0 mm 1 mps 626 mmHg 55%
    04:00 +14°C° 0.2 mm 1 mps 626 mmHg 57%
    05:00 +14°C° 0.2 mm 1 mps 626 mmHg 59%
    06:00 +15°C° 0.2 mm 1 mps 626 mmHg 60%
    07:00 +18°C° 0.3 mm 1 mps 627 mmHg 57%
    08:00 +19°C° 0.3 mm 2 mps 628 mmHg 54%
    09:00 +21°C° 0.3 mm 2 mps 629 mmHg 51%
    10:00 +23°C° 0.1 mm 2 mps 630 mmHg 48%
    11:00 +24°C° 0.1 mm 3 mps 630 mmHg 45%
    12:00 +25°C° 0.1 mm 3 mps 630 mmHg 43%
    13:00 +25°C° 0 mm 3 mps 630 mmHg 43%
    14:00 +26°C° 0 mm 3 mps 630 mmHg 42%
    15:00 +26°C° 0 mm 3 mps 630 mmHg 42%
    16:00 +25°C° 0.1 mm 3 mps 630 mmHg 47%
    17:00 +24°C° 0.1 mm 2 mps 629 mmHg 53%
    18:00 +23°C° 0.1 mm 2 mps 629 mmHg 58%
    19:00 +21°C° 0.1 mm 1 mps 629 mmHg 65%
    20:00 +19°C° 0.1 mm 1 mps 628 mmHg 72%
    21:00 +16°C° 0.1 mm 1 mps 628 mmHg 79%
    22:00 +15°C° 0 mm 1 mps 628 mmHg 79%
    23:00 +15°C° 0 mm 1 mps 628 mmHg 79%
    Show more